Year,Month,Day,Hour,Minute,Value (Times are PST for temperature in C)
2017,09,25,00,00,13.60
2017,09,25,00,01,13.60
2017,09,25,00,02,13.60
2017,09,25,00,03,13.60
2017,09,25,00,04,13.60
2017,09,25,00,05,13.60
2017,09,25,00,06,13.60
2017,09,25,00,07,13.60
2017,09,25,00,08,13.60
2017,09,25,00,09,13.60
2017,09,25,00,10,13.60
2017,09,25,00,11,13.60
2017,09,25,00,12,13.70
2017,09,25,00,13,13.70
2017,09,25,00,14,13.70
2017,09,25,00,15,13.70
2017,09,25,00,16,13.70
2017,09,25,00,17,13.70
2017,09,25,00,18,13.70
2017,09,25,00,19,13.70
2017,09,25,00,20,13.70
2017,09,25,00,21,13.70
2017,09,25,00,22,13.70
2017,09,25,00,23,13.70
2017,09,25,00,24,13.70
2017,09,25,00,25,13.70
2017,09,25,00,26,13.70
2017,09,25,00,27,13.70
2017,09,25,00,28,13.70
2017,09,25,00,29,13.80
2017,09,25,00,30,13.80
2017,09,25,00,31,13.80
2017,09,25,00,32,13.80
2017,09,25,00,33,13.80
2017,09,25,00,34,13.80
2017,09,25,00,35,13.80
2017,09,25,00,36,13.80
2017,09,25,00,37,13.80
2017,09,25,00,38,13.90
2017,09,25,00,39,13.90
2017,09,25,00,40,13.90
2017,09,25,00,41,13.90
2017,09,25,00,42,13.80
2017,09,25,00,43,13.80
2017,09,25,00,44,13.80
2017,09,25,00,45,13.80
2017,09,25,00,46,13.80
2017,09,25,00,47,13.70
2017,09,25,00,48,13.70
2017,09,25,00,49,13.70
2017,09,25,00,50,13.70
2017,09,25,00,51,13.70
2017,09,25,00,52,13.70
2017,09,25,00,53,13.60
2017,09,25,00,54,13.60
2017,09,25,00,55,13.60
2017,09,25,00,56,13.50
2017,09,25,00,57,13.50
2017,09,25,00,58,13.40
2017,09,25,00,59,13.40
2017,09,25,01,00,13.40
2017,09,25,01,01,13.30
2017,09,25,01,02,13.30
2017,09,25,01,03,13.30
2017,09,25,01,04,13.20
2017,09,25,01,05,13.20
2017,09,25,01,06,13.20
2017,09,25,01,07,13.20
2017,09,25,01,08,13.20
2017,09,25,01,09,13.10
2017,09,25,01,10,13.10
2017,09,25,01,11,13.10
2017,09,25,01,12,13.10
2017,09,25,01,13,13.00
2017,09,25,01,14,13.00
2017,09,25,01,15,12.90
2017,09,25,01,16,12.90
2017,09,25,01,17,12.90
2017,09,25,01,18,12.80
2017,09,25,01,19,12.80
2017,09,25,01,20,12.80
2017,09,25,01,21,12.80
2017,09,25,01,22,12.80
2017,09,25,01,23,12.80
2017,09,25,01,24,12.80
2017,09,25,01,25,12.80
2017,09,25,01,26,12.70
2017,09,25,01,27,12.70
2017,09,25,01,28,12.70
2017,09,25,01,29,12.70
2017,09,25,01,30,12.70
2017,09,25,01,31,12.70
2017,09,25,01,32,12.70
2017,09,25,01,33,12.70
2017,09,25,01,34,12.70
2017,09,25,01,35,12.70
2017,09,25,01,36,12.70
2017,09,25,01,37,12.70
2017,09,25,01,38,12.70
2017,09,25,01,39,12.70
2017,09,25,01,40,12.70
2017,09,25,01,41,12.60
2017,09,25,01,42,12.60
2017,09,25,01,43,12.60
2017,09,25,01,44,12.60
2017,09,25,01,45,12.60
2017,09,25,01,46,12.60
2017,09,25,01,47,12.60
2017,09,25,01,48,12.60
2017,09,25,01,49,12.60
2017,09,25,01,50,12.60
2017,09,25,01,51,12.60
2017,09,25,01,52,12.50
2017,09,25,01,53,12.50
2017,09,25,01,54,12.50
2017,09,25,01,55,12.50
2017,09,25,01,56,12.50
2017,09,25,01,57,12.50
2017,09,25,01,58,12.40
2017,09,25,01,59,12.40
2017,09,25,02,00,12.40
2017,09,25,02,01,12.40
2017,09,25,02,02,12.40
2017,09,25,02,03,12.40
2017,09,25,02,04,12.30
2017,09,25,02,05,12.30
2017,09,25,02,06,12.30
2017,09,25,02,07,12.30
2017,09,25,02,08,12.20
2017,09,25,02,09,12.20
2017,09,25,02,10,12.20
2017,09,25,02,11,12.20
2017,09,25,02,12,12.20
2017,09,25,02,13,12.20
2017,09,25,02,14,12.20
2017,09,25,02,15,12.20
2017,09,25,02,16,12.10
2017,09,25,02,17,12.10
2017,09,25,02,18,12.10
2017,09,25,02,19,12.10
2017,09,25,02,20,12.10
2017,09,25,02,21,12.10
2017,09,25,02,22,12.10
2017,09,25,02,23,12.10
2017,09,25,02,24,12.10
2017,09,25,02,25,12.10
2017,09,25,02,26,12.00
2017,09,25,02,27,12.00
2017,09,25,02,28,12.00
2017,09,25,02,29,12.00
2017,09,25,02,30,12.00
2017,09,25,02,31,12.00
2017,09,25,02,32,12.00
2017,09,25,02,33,12.00
2017,09,25,02,34,11.90
2017,09,25,02,35,11.90
2017,09,25,02,36,11.90
2017,09,25,02,37,11.90
2017,09,25,02,38,11.90
2017,09,25,02,39,11.90
2017,09,25,02,40,11.90
2017,09,25,02,41,11.90
2017,09,25,02,42,11.90
2017,09,25,02,43,11.90
2017,09,25,02,44,11.90
2017,09,25,02,45,11.90
2017,09,25,02,46,11.90
2017,09,25,02,47,11.90
2017,09,25,02,48,11.90
2017,09,25,02,49,11.90
2017,09,25,02,50,11.90
2017,09,25,02,51,11.90
2017,09,25,02,52,11.90
2017,09,25,02,53,11.90
2017,09,25,02,54,11.90
2017,09,25,02,55,11.90
2017,09,25,02,56,11.90
2017,09,25,02,57,11.90
2017,09,25,02,58,11.90
2017,09,25,02,59,11.90
2017,09,25,03,00,11.90
2017,09,25,03,01,11.90
2017,09,25,03,02,11.90
2017,09,25,03,03,11.90
2017,09,25,03,04,11.90
2017,09,25,03,05,11.90
2017,09,25,03,06,11.90
2017,09,25,03,07,11.90
2017,09,25,03,08,11.90
2017,09,25,03,09,11.90
2017,09,25,03,10,11.90
2017,09,25,03,11,11.90
2017,09,25,03,12,11.90
2017,09,25,03,13,11.90
2017,09,25,03,14,11.90
2017,09,25,03,15,11.90
2017,09,25,03,16,11.90
2017,09,25,03,17,11.90
2017,09,25,03,18,11.90
2017,09,25,03,19,11.80
2017,09,25,03,20,11.80
2017,09,25,03,21,11.80
2017,09,25,03,22,11.80
2017,09,25,03,23,11.80
2017,09,25,03,24,11.80
2017,09,25,03,25,11.80
2017,09,25,03,26,11.80
2017,09,25,03,27,11.80
2017,09,25,03,28,11.80
2017,09,25,03,29,11.80
2017,09,25,03,30,11.80
2017,09,25,03,31,11.80
2017,09,25,03,32,11.80
2017,09,25,03,33,11.80
2017,09,25,03,34,11.80
2017,09,25,03,35,11.80
2017,09,25,03,36,11.80
2017,09,25,03,37,11.80
2017,09,25,03,38,11.80
2017,09,25,03,39,11.80
2017,09,25,03,40,11.80
2017,09,25,03,41,11.80
2017,09,25,03,42,11.80
2017,09,25,03,43,11.80
2017,09,25,03,44,11.80
2017,09,25,03,45,11.80
2017,09,25,03,46,11.80
2017,09,25,03,47,11.80
2017,09,25,03,48,11.70
2017,09,25,03,49,11.80
2017,09,25,03,50,11.80
2017,09,25,03,51,11.80
2017,09,25,03,52,11.80
2017,09,25,03,53,11.70
2017,09,25,03,54,11.70
2017,09,25,03,55,11.70
2017,09,25,03,56,11.70
2017,09,25,03,57,11.70
2017,09,25,03,58,11.70
2017,09,25,03,59,11.70
2017,09,25,04,00,11.70
2017,09,25,04,01,11.70
2017,09,25,04,02,11.70
2017,09,25,04,03,11.70
2017,09,25,04,04,11.70
2017,09,25,04,05,11.70
2017,09,25,04,06,11.70
2017,09,25,04,07,11.70
2017,09,25,04,08,11.70
2017,09,25,04,09,11.70
2017,09,25,04,10,11.70
2017,09,25,04,11,11.70
2017,09,25,04,12,11.70
2017,09,25,04,13,11.70
2017,09,25,04,14,11.70
2017,09,25,04,15,11.70
2017,09,25,04,16,11.70
2017,09,25,04,17,11.70
2017,09,25,04,18,11.80
2017,09,25,04,19,11.80
2017,09,25,04,20,11.80
2017,09,25,04,21,11.80
2017,09,25,04,22,11.80
2017,09,25,04,23,11.80
2017,09,25,04,24,11.80
2017,09,25,04,25,11.80
2017,09,25,04,26,11.80
2017,09,25,04,27,11.80
2017,09,25,04,28,11.80
2017,09,25,04,29,11.80
2017,09,25,04,30,11.80
2017,09,25,04,31,11.80
2017,09,25,04,32,11.80
2017,09,25,04,33,11.80
2017,09,25,04,34,11.80
2017,09,25,04,35,11.80
2017,09,25,04,36,11.80
2017,09,25,04,37,11.80
2017,09,25,04,38,11.80
2017,09,25,04,39,11.80
2017,09,25,04,40,11.80
2017,09,25,04,41,11.80
2017,09,25,04,42,11.80
2017,09,25,04,43,11.80
2017,09,25,04,44,11.80
2017,09,25,04,45,11.80
2017,09,25,04,46,11.80
2017,09,25,04,47,11.80
2017,09,25,04,48,11.80
2017,09,25,04,49,11.80
2017,09,25,04,50,11.80
2017,09,25,04,51,11.80
2017,09,25,04,52,11.80
2017,09,25,04,53,11.90
2017,09,25,04,54,11.90
2017,09,25,04,55,11.90
2017,09,25,04,56,11.90
2017,09,25,04,57,11.90
2017,09,25,04,58,11.90
2017,09,25,04,59,11.90
2017,09,25,05,00,11.90
2017,09,25,05,01,11.90
2017,09,25,05,02,11.90
2017,09,25,05,03,11.90
2017,09,25,05,04,11.90
2017,09,25,05,05,11.90
2017,09,25,05,06,11.90
2017,09,25,05,07,11.90
2017,09,25,05,08,11.90
2017,09,25,05,09,11.90
2017,09,25,05,10,11.90
2017,09,25,05,11,11.90
2017,09,25,05,12,11.90
2017,09,25,05,13,11.90
2017,09,25,05,14,11.90
2017,09,25,05,15,11.90
2017,09,25,05,16,11.90
2017,09,25,05,17,11.90
2017,09,25,05,18,11.90
2017,09,25,05,19,11.90
2017,09,25,05,20,11.90
2017,09,25,05,21,11.90
2017,09,25,05,22,11.90
2017,09,25,05,23,11.90
2017,09,25,05,24,11.90
2017,09,25,05,25,11.90
2017,09,25,05,26,11.90
2017,09,25,05,27,11.90
2017,09,25,05,28,11.90
2017,09,25,05,29,11.90
2017,09,25,05,30,11.90
2017,09,25,05,31,11.90
2017,09,25,05,32,11.90
2017,09,25,05,33,11.90
2017,09,25,05,34,11.90
2017,09,25,05,35,11.90
2017,09,25,05,36,11.90
2017,09,25,05,37,11.90
2017,09,25,05,38,11.90
2017,09,25,05,39,11.90
2017,09,25,05,40,11.90
2017,09,25,05,41,11.90
2017,09,25,05,42,11.90
2017,09,25,05,43,11.90
2017,09,25,05,44,11.80
2017,09,25,05,45,11.80
2017,09,25,05,46,11.80
2017,09,25,05,47,11.80
2017,09,25,05,48,11.80
2017,09,25,05,49,11.80
2017,09,25,05,50,11.80
2017,09,25,05,51,11.80
2017,09,25,05,52,11.80
2017,09,25,05,53,11.80
2017,09,25,05,54,11.80
2017,09,25,05,55,11.80
2017,09,25,05,56,11.80
2017,09,25,05,57,11.80
2017,09,25,05,58,11.80
2017,09,25,05,59,11.80
2017,09,25,06,00,11.70
2017,09,25,06,01,11.70
2017,09,25,06,02,11.70
2017,09,25,06,03,11.70
2017,09,25,06,04,11.70
2017,09,25,06,05,11.70
2017,09,25,06,06,11.70
2017,09,25,06,07,11.70
2017,09,25,06,08,11.70
2017,09,25,06,09,11.70
2017,09,25,06,10,11.70
2017,09,25,06,11,11.70
2017,09,25,06,12,11.70
2017,09,25,06,13,11.70
2017,09,25,06,14,11.70
2017,09,25,06,15,11.70
2017,09,25,06,16,11.70
2017,09,25,06,17,11.70
2017,09,25,06,18,11.70
2017,09,25,06,19,11.70
2017,09,25,06,20,11.70
2017,09,25,06,21,11.70
2017,09,25,06,22,11.70
2017,09,25,06,23,11.80
2017,09,25,06,24,11.80
2017,09,25,06,25,11.80
2017,09,25,06,26,11.80
2017,09,25,06,27,11.80
2017,09,25,06,28,11.80
2017,09,25,06,29,11.80
2017,09,25,06,30,11.80
2017,09,25,06,31,11.80
2017,09,25,06,32,11.80
2017,09,25,06,33,11.80
2017,09,25,06,34,11.80
2017,09,25,06,35,11.80
2017,09,25,06,36,11.80
2017,09,25,06,37,11.80
2017,09,25,06,38,11.80
2017,09,25,06,39,11.80
2017,09,25,06,40,11.80
2017,09,25,06,41,11.80
2017,09,25,06,42,11.80
2017,09,25,06,43,11.80
2017,09,25,06,44,11.80
2017,09,25,06,45,11.80
2017,09,25,06,46,11.80
2017,09,25,06,47,11.80
2017,09,25,06,48,11.80
2017,09,25,06,49,11.80
2017,09,25,06,50,11.80
2017,09,25,06,51,11.80
2017,09,25,06,52,11.80
2017,09,25,06,53,11.80
2017,09,25,06,54,11.80
2017,09,25,06,55,11.80
2017,09,25,06,56,11.80
2017,09,25,06,57,11.80
2017,09,25,06,58,11.80
2017,09,25,06,59,11.80
2017,09,25,07,00,11.80
2017,09,25,07,01,11.80
2017,09,25,07,02,11.80
2017,09,25,07,03,11.80
2017,09,25,07,04,11.80
2017,09,25,07,05,11.80
2017,09,25,07,06,11.80
2017,09,25,07,07,11.80
2017,09,25,07,08,11.80
2017,09,25,07,09,11.80
2017,09,25,07,10,11.80
2017,09,25,07,11,11.80
2017,09,25,07,12,11.80
2017,09,25,07,13,11.80
2017,09,25,07,14,11.80
2017,09,25,07,15,11.80
2017,09,25,07,16,11.80
2017,09,25,07,17,11.80
2017,09,25,07,18,11.90
2017,09,25,07,19,11.90
2017,09,25,07,20,11.90
2017,09,25,07,21,11.90
2017,09,25,07,22,11.90
2017,09,25,07,23,11.90
2017,09,25,07,24,11.90
2017,09,25,07,25,11.90
2017,09,25,07,26,11.90
2017,09,25,07,27,11.90
2017,09,25,07,28,11.90
2017,09,25,07,29,11.90
2017,09,25,07,30,11.90
2017,09,25,07,31,11.90
2017,09,25,07,32,11.90
2017,09,25,07,33,11.90
2017,09,25,07,34,11.90
2017,09,25,07,35,11.90
2017,09,25,07,36,11.90
2017,09,25,07,37,11.90
2017,09,25,07,38,11.90
2017,09,25,07,39,12.00
2017,09,25,07,40,12.00
2017,09,25,07,41,12.00
2017,09,25,07,42,12.00
2017,09,25,07,43,12.00
2017,09,25,07,44,12.00
2017,09,25,07,45,12.00
2017,09,25,07,46,12.00
2017,09,25,07,47,12.00
2017,09,25,07,48,12.00
2017,09,25,07,49,12.00
2017,09,25,07,50,12.00
